Year,Month,Day,Hour,Minute,Value (Times are PST for windspeed in km/hr)
2011,07,06,13,31,6.60
2011,07,06,13,32,10.00
2011,07,06,13,33,13.40
2011,07,06,13,34,8.80
2011,07,06,13,35,6.20
2011,07,06,13,36,11.20
2011,07,06,13,37,5.00
2011,07,06,13,38,10.80
2011,07,06,13,39,8.00
2011,07,06,13,40,10.40
2011,07,06,13,41,10.30
2011,07,06,13,42,7.40
2011,07,06,13,43,7.60
2011,07,06,13,44,11.00
2011,07,06,13,45,11.50
2011,07,06,13,46,14.70
2011,07,06,13,47,11.30
2011,07,06,13,48,10.90
2011,07,06,13,49,13.10
2011,07,06,13,50,11.10
2011,07,06,13,51,8.80
2011,07,06,13,52,9.70
2011,07,06,13,53,7.70
2011,07,06,13,54,7.60
2011,07,06,13,55,11.70
2011,07,06,13,56,13.00
2011,07,06,13,57,12.10
2011,07,06,13,58,13.00
2011,07,06,13,59,10.20
2011,07,06,14,00,13.70
2011,07,06,14,01,13.10
2011,07,06,14,02,9.10
2011,07,06,14,03,13.10
2011,07,06,14,04,11.50
2011,07,06,14,05,14.10
2011,07,06,14,06,10.40
2011,07,06,14,07,14.20
2011,07,06,14,08,11.00
2011,07,06,14,09,14.80
2011,07,06,14,10,12.50
2011,07,06,14,11,10.50
2011,07,06,14,12,9.70
2011,07,06,14,13,10.10
2011,07,06,14,14,15.80
2011,07,06,14,15,15.30
2011,07,06,14,16,14.00
2011,07,06,14,17,14.60
2011,07,06,14,18,15.70
2011,07,06,14,19,12.80
2011,07,06,14,20,14.90
2011,07,06,14,21,14.20
2011,07,06,14,22,7.80
2011,07,06,14,23,9.00
2011,07,06,14,24,11.10
2011,07,06,14,25,8.50
2011,07,06,14,26,6.80
2011,07,06,14,27,9.80
2011,07,06,14,28,10.30
2011,07,06,14,29,8.50
2011,07,06,14,30,7.70
2011,07,06,14,31,6.20
2011,07,06,14,32,10.50
2011,07,06,14,33,11.40
2011,07,06,14,34,8.00
2011,07,06,14,35,9.00
2011,07,06,14,36,10.10
2011,07,06,14,37,13.40
2011,07,06,14,38,12.70
2011,07,06,14,39,13.50
2011,07,06,14,40,13.40
2011,07,06,14,41,12.80
2011,07,06,14,42,14.80
2011,07,06,14,43,11.30
2011,07,06,14,44,14.60
2011,07,06,14,45,13.40
2011,07,06,14,46,8.80
2011,07,06,14,47,10.20
2011,07,06,14,48,15.20
2011,07,06,14,49,11.60
2011,07,06,14,50,16.00
2011,07,06,14,51,12.10
2011,07,06,14,52,13.50
2011,07,06,14,53,12.50
2011,07,06,14,54,8.00
2011,07,06,14,55,11.90
2011,07,06,14,56,12.40
2011,07,06,14,57,9.50
2011,07,06,14,58,10.00
2011,07,06,14,59,8.90
2011,07,06,15,00,9.70
2011,07,06,15,01,6.70
2011,07,06,15,02,8.50
2011,07,06,15,03,10.50
2011,07,06,15,04,11.30
2011,07,06,15,05,7.60
2011,07,06,15,06,9.50
2011,07,06,15,07,13.50
2011,07,06,15,08,9.70
2011,07,06,15,09,9.20
2011,07,06,15,10,11.30
2011,07,06,15,11,12.60
2011,07,06,15,12,11.00
2011,07,06,15,13,10.60
2011,07,06,15,14,13.40
2011,07,06,15,15,11.90
2011,07,06,15,16,9.00
2011,07,06,15,17,10.90
2011,07,06,15,18,6.70
2011,07,06,15,19,10.40
2011,07,06,15,20,10.70
2011,07,06,15,21,12.00
2011,07,06,15,22,11.30
2011,07,06,15,23,13.30
2011,07,06,15,24,17.50
2011,07,06,15,25,12.70
2011,07,06,15,26,15.80
2011,07,06,15,27,10.90
2011,07,06,15,28,10.50
2011,07,06,15,29,10.20
2011,07,06,15,30,9.70
2011,07,06,15,31,8.80
2011,07,06,15,32,7.10
2011,07,06,15,33,8.40
2011,07,06,15,34,6.40
2011,07,06,15,35,8.10
2011,07,06,15,36,8.20
2011,07,06,15,37,7.40
2011,07,06,15,38,7.70
2011,07,06,15,39,10.50
2011,07,06,15,40,10.60
2011,07,06,15,41,11.70
2011,07,06,15,42,11.90
2011,07,06,15,43,10.50
2011,07,06,15,44,13.10
2011,07,06,15,45,12.20
2011,07,06,15,46,9.40
2011,07,06,15,47,10.10
2011,07,06,15,48,13.00
2011,07,06,15,49,12.10
2011,07,06,15,50,8.60
2011,07,06,15,51,5.70
2011,07,06,15,52,7.60
2011,07,06,15,53,8.30
2011,07,06,15,54,8.80
2011,07,06,15,55,11.30
2011,07,06,15,56,10.10
2011,07,06,15,57,6.40
2011,07,06,15,58,10.70
2011,07,06,15,59,7.40
2011,07,06,16,00,7.70
2011,07,06,16,01,6.70
2011,07,06,16,02,10.00
2011,07,06,16,03,7.20
2011,07,06,16,04,8.20
2011,07,06,16,05,9.50
2011,07,06,16,06,9.90
2011,07,06,16,07,9.70
2011,07,06,16,08,9.20
2011,07,06,16,09,8.60
2011,07,06,16,10,5.70
2011,07,06,16,11,10.80
2011,07,06,16,12,10.80
2011,07,06,16,13,8.50
2011,07,06,16,14,7.20
2011,07,06,16,15,7.30
2011,07,06,16,16,8.70
2011,07,06,16,17,9.40
2011,07,06,16,18,8.50
2011,07,06,16,19,9.00
2011,07,06,16,20,8.00
2011,07,06,16,21,7.30
2011,07,06,16,22,5.10
2011,07,06,16,23,6.20
2011,07,06,16,24,8.40
2011,07,06,16,25,9.20
2011,07,06,16,26,7.60
2011,07,06,16,27,9.00
2011,07,06,16,28,10.00
2011,07,06,16,29,9.40
2011,07,06,16,30,7.80
2011,07,06,16,31,10.60
2011,07,06,16,32,13.00
2011,07,06,16,33,9.20
2011,07,06,16,34,10.40
2011,07,06,16,35,7.30
2011,07,06,16,36,8.10
2011,07,06,16,37,9.30
2011,07,06,16,38,8.80
2011,07,06,16,39,10.00
2011,07,06,16,40,7.10
2011,07,06,16,41,10.10
2011,07,06,16,42,9.20
2011,07,06,16,43,7.00
2011,07,06,16,44,6.00
2011,07,06,16,45,6.40
2011,07,06,16,46,10.30
2011,07,06,16,47,8.20
2011,07,06,16,48,7.70
2011,07,06,16,49,5.70
2011,07,06,16,50,7.70
2011,07,06,16,51,7.90
2011,07,06,16,52,6.80
2011,07,06,16,53,7.80
2011,07,06,16,54,8.60
2011,07,06,16,55,6.70
2011,07,06,16,56,7.40
2011,07,06,16,57,7.80
2011,07,06,16,58,6.90
2011,07,06,16,59,4.30
2011,07,06,17,00,6.30
2011,07,06,17,01,7.20
2011,07,06,17,02,7.70
2011,07,06,17,03,4.50
2011,07,06,17,04,7.10
2011,07,06,17,05,3.50
2011,07,06,17,06,6.10
2011,07,06,17,07,6.20
2011,07,06,17,08,9.40
2011,07,06,17,09,9.00
2011,07,06,17,10,7.00
2011,07,06,17,11,6.20
2011,07,06,17,12,8.50
2011,07,06,17,13,9.80
2011,07,06,17,14,8.40
2011,07,06,17,15,5.60
2011,07,06,17,16,7.30
2011,07,06,17,17,5.20
2011,07,06,17,18,5.40
2011,07,06,17,19,6.70
2011,07,06,17,20,4.60
2011,07,06,17,21,6.10
2011,07,06,17,22,6.80
2011,07,06,17,23,6.00
2011,07,06,17,24,7.40
2011,07,06,17,25,10.90
2011,07,06,17,26,7.80
2011,07,06,17,27,10.40
2011,07,06,17,28,8.70
2011,07,06,17,29,8.50
2011,07,06,17,30,8.40
2011,07,06,17,31,7.80
2011,07,06,17,32,7.70
2011,07,06,17,33,9.20
2011,07,06,17,34,6.20
2011,07,06,17,35,6.40
2011,07,06,17,36,5.70
2011,07,06,17,37,7.00
2011,07,06,17,38,5.30
2011,07,06,17,39,7.80
2011,07,06,17,40,8.40
2011,07,06,17,41,6.50
2011,07,06,17,42,8.60
2011,07,06,17,43,8.50
2011,07,06,17,44,6.50
2011,07,06,17,45,7.40
2011,07,06,17,46,7.40
2011,07,06,17,47,6.30
2011,07,06,17,48,7.70
2011,07,06,17,49,7.40
2011,07,06,17,50,7.70
2011,07,06,17,51,8.60
2011,07,06,17,52,6.40
2011,07,06,17,53,4.30
2011,07,06,17,54,5.00
2011,07,06,17,55,6.30
2011,07,06,17,56,4.80
2011,07,06,17,57,6.40
2011,07,06,17,58,7.30
2011,07,06,17,59,7.70
2011,07,06,18,00,7.60
2011,07,06,18,01,9.80
2011,07,06,18,02,6.80
2011,07,06,18,03,6.00
2011,07,06,18,04,3.60
2011,07,06,18,05,6.80
2011,07,06,18,06,6.40
2011,07,06,18,07,4.70
2011,07,06,18,08,6.30
2011,07,06,18,09,5.20
2011,07,06,18,10,6.00
2011,07,06,18,11,6.40
2011,07,06,18,12,5.80
2011,07,06,18,13,3.50
2011,07,06,18,14,5.10
2011,07,06,18,15,3.00
2011,07,06,18,16,3.10
2011,07,06,18,17,3.60
2011,07,06,18,18,5.80
2011,07,06,18,19,7.40
2011,07,06,18,20,3.60
2011,07,06,18,21,4.70
2011,07,06,18,22,3.50
2011,07,06,18,23,3.00
2011,07,06,18,24,5.60
2011,07,06,18,25,4.40
2011,07,06,18,26,6.40
2011,07,06,18,27,4.90
2011,07,06,18,28,6.80
2011,07,06,18,29,5.90
2011,07,06,18,30,7.70
2011,07,06,18,31,5.60
2011,07,06,18,32,5.10
2011,07,06,18,33,4.20
2011,07,06,18,34,6.60
2011,07,06,18,35,5.40
2011,07,06,18,36,3.40
2011,07,06,18,37,4.30
2011,07,06,18,38,6.00
2011,07,06,18,39,7.20
2011,07,06,18,40,5.50
2011,07,06,18,41,4.70
2011,07,06,18,42,7.50
2011,07,06,18,43,10.50
2011,07,06,18,44,8.80
2011,07,06,18,45,7.10
2011,07,06,18,46,8.40
2011,07,06,18,47,7.60
2011,07,06,18,48,8.40
2011,07,06,18,49,11.70
2011,07,06,18,50,8.30
2011,07,06,18,51,10.50
2011,07,06,18,52,9.30
2011,07,06,18,53,7.70
2011,07,06,18,54,11.70
2011,07,06,18,55,8.80
2011,07,06,18,56,8.90
2011,07,06,18,57,8.70
2011,07,06,18,58,10.90
2011,07,06,18,59,9.20
2011,07,06,19,00,8.90
2011,07,06,19,01,8.60
2011,07,06,19,02,5.80
2011,07,06,19,03,5.50
2011,07,06,19,04,7.10
2011,07,06,19,05,7.90
2011,07,06,19,06,4.10
2011,07,06,19,07,7.30
2011,07,06,19,08,4.20
2011,07,06,19,09,8.00
2011,07,06,19,10,6.40
2011,07,06,19,11,4.20
2011,07,06,19,12,5.10
2011,07,06,19,13,6.50
2011,07,06,19,14,6.60
2011,07,06,19,15,10.50
2011,07,06,19,16,9.20
2011,07,06,19,17,10.70
2011,07,06,19,18,5.30
2011,07,06,19,19,3.60
2011,07,06,19,20,5.80
2011,07,06,19,21,5.20
2011,07,06,19,22,4.30
2011,07,06,19,23,7.20
2011,07,06,19,24,7.80
2011,07,06,19,25,6.40
2011,07,06,19,26,4.80
2011,07,06,19,27,7.60
2011,07,06,19,28,5.90
2011,07,06,19,29,3.10
2011,07,06,19,30,7.30
2011,07,06,19,31,4.20
2011,07,06,19,32,6.70
2011,07,06,19,33,6.80
2011,07,06,19,34,7.60
2011,07,06,19,35,6.40
2011,07,06,19,36,7.00
2011,07,06,19,37,5.70
2011,07,06,19,38,4.30
2011,07,06,19,39,2.90
2011,07,06,19,40,3.90
2011,07,06,19,41,12.60
2011,07,06,19,42,14.10
2011,07,06,19,43,12.00
2011,07,06,19,44,11.50
2011,07,06,19,45,11.90
2011,07,06,19,46,10.40
2011,07,06,19,47,8.70
2011,07,06,19,48,10.40
2011,07,06,19,49,9.20
2011,07,06,19,50,12.20
2011,07,06,19,51,11.60
2011,07,06,19,52,15.60
2011,07,06,19,53,13.70
2011,07,06,19,54,10.10
2011,07,06,19,55,11.70
2011,07,06,19,56,10.90
2011,07,06,19,57,8.10
2011,07,06,19,58,7.60
2011,07,06,19,59,9.30
2011,07,06,20,00,11.70
2011,07,06,20,01,10.50
2011,07,06,20,02,8.60
2011,07,06,20,03,9.60
2011,07,06,20,04,8.10
2011,07,06,20,05,8.10
2011,07,06,20,06,8.10
2011,07,06,20,07,9.60
2011,07,06,20,08,17.30
2011,07,06,20,09,10.50
2011,07,06,20,10,13.20
2011,07,06,20,11,13.80
2011,07,06,20,12,9.80
2011,07,06,20,13,11.40
2011,07,06,20,14,11.30
2011,07,06,20,15,11.30
2011,07,06,20,16,10.20
2011,07,06,20,17,6.30
2011,07,06,20,18,9.20
2011,07,06,20,19,8.90
2011,07,06,20,20,7.90
2011,07,06,20,21,13.10
2011,07,06,20,22,10.80
2011,07,06,20,23,6.60
2011,07,06,20,24,7.50
2011,07,06,20,25,10.00
2011,07,06,20,26,9.90
2011,07,06,20,27,8.40
2011,07,06,20,28,8.70
2011,07,06,20,29,7.40
2011,07,06,20,30,8.50
2011,07,06,20,31,6.90
2011,07,06,20,32,6.60
2011,07,06,20,33,9.40
2011,07,06,20,34,9.60
2011,07,06,20,35,7.20
2011,07,06,20,36,7.60
2011,07,06,20,37,9.80
2011,07,06,20,38,6.40
2011,07,06,20,39,9.70
2011,07,06,20,40,11.50
2011,07,06,20,41,9.40
2011,07,06,20,42,8.70
2011,07,06,20,43,7.60
2011,07,06,20,44,9.50
2011,07,06,20,45,9.60
2011,07,06,20,46,10.00
2011,07,06,20,47,7.40
2011,07,06,20,48,4.40
2011,07,06,20,49,6.00
2011,07,06,20,50,7.80
2011,07,06,20,51,9.20
2011,07,06,20,52,7.80
2011,07,06,20,53,9.70
2011,07,06,20,54,7.60
2011,07,06,20,55,4.70
2011,07,06,20,56,7.10
2011,07,06,20,57,5.80
2011,07,06,20,58,7.20
2011,07,06,20,59,12.90
2011,07,06,21,00,8.30
2011,07,06,21,01,9.30
2011,07,06,21,02,8.20
2011,07,06,21,03,8.70
2011,07,06,21,04,9.10
2011,07,06,21,05,10.20
2011,07,06,21,06,9.20
2011,07,06,21,07,11.00
2011,07,06,21,08,11.20
2011,07,06,21,09,10.20
2011,07,06,21,10,8.30
2011,07,06,21,11,10.30
2011,07,06,21,12,10.90
2011,07,06,21,13,9.40
2011,07,06,21,14,8.10
2011,07,06,21,15,10.80
2011,07,06,21,16,9.70
2011,07,06,21,17,6.30
2011,07,06,21,18,10.10
2011,07,06,21,19,5.50
2011,07,06,21,20,6.50
2011,07,06,21,21,8.20
2011,07,06,21,22,6.00
2011,07,06,21,23,5.10
2011,07,06,21,24,6.00
2011,07,06,21,25,8.00
2011,07,06,21,26,8.80
2011,07,06,21,27,6.90
2011,07,06,21,28,5.10
2011,07,06,21,29,4.30
2011,07,06,21,30,7.70
2011,07,06,21,31,7.20
2011,07,06,21,32,3.10
2011,07,06,21,33,5.70
2011,07,06,21,34,3.20
2011,07,06,21,35,7.20
2011,07,06,21,36,0.90
2011,07,06,21,37,2.40
2011,07,06,21,38,2.10
2011,07,06,21,39,0.70
2011,07,06,21,40,1.40
2011,07,06,21,41,1.90
2011,07,06,21,42,3.00
2011,07,06,21,43,2.00
2011,07,06,21,44,0.60
2011,07,06,21,45,0.10
2011,07,06,21,46,0.00
2011,07,06,21,47,0.00
2011,07,06,21,48,0.90
2011,07,06,21,49,2.80
2011,07,06,21,50,1.10
2011,07,06,21,51,0.30
2011,07,06,21,52,0.20
2011,07,06,21,53,0.20
2011,07,06,21,54,0.20
2011,07,06,21,55,0.00
2011,07,06,21,56,1.80
2011,07,06,21,57,3.00
2011,07,06,21,58,2.40
2011,07,06,21,59,1.20
2011,07,06,22,00,2.60
2011,07,06,22,01,1.80
2011,07,06,22,02,1.70
2011,07,06,22,03,2.30
2011,07,06,22,04,3.90
2011,07,06,22,05,1.80
2011,07,06,22,06,1.00
2011,07,06,22,07,3.90
2011,07,06,22,08,4.40
2011,07,06,22,09,2.60
2011,07,06,22,10,3.10
2011,07,06,22,11,3.20
2011,07,06,22,12,2.10
2011,07,06,22,13,1.10
2011,07,06,22,14,1.20
2011,07,06,22,15,0.30
2011,07,06,22,16,0.30
2011,07,06,22,17,1.90
2011,07,06,22,18,2.60
2011,07,06,22,19,2.10
2011,07,06,22,20,2.50
2011,07,06,22,21,1.90
2011,07,06,22,22,1.30
2011,07,06,22,23,1.40
2011,07,06,22,24,0.50
2011,07,06,22,25,0.60
2011,07,06,22,26,2.10
2011,07,06,22,27,1.90
2011,07,06,22,28,1.50
2011,07,06,22,29,0.50
2011,07,06,22,30,0.50
2011,07,06,22,31,1.00
2011,07,06,22,32,1.70
2011,07,06,22,33,0.60
2011,07,06,22,34,1.60
2011,07,06,22,35,0.80
2011,07,06,22,36,0.10
2011,07,06,22,37,0.20
2011,07,06,22,38,0.30
2011,07,06,22,39,0.90
2011,07,06,22,40,0.60
2011,07,06,22,41,0.20
2011,07,06,22,42,0.00
2011,07,06,22,43,0.20
2011,07,06,22,44,0.00
2011,07,06,22,45,0.00
2011,07,06,22,46,0.00
2011,07,06,22,47,0.50
2011,07,06,22,48,0.40
2011,07,06,22,49,0.50
2011,07,06,22,50,0.00
2011,07,06,22,51,0.00
2011,07,06,22,52,0.00
2011,07,06,22,53,0.00
2011,07,06,22,54,0.00
2011,07,06,22,55,0.00
2011,07,06,22,56,0.00
2011,07,06,22,57,0.00
2011,07,06,22,58,0.10
2011,07,06,22,59,0.30
2011,07,06,23,00,0.30
2011,07,06,23,01,0.20
2011,07,06,23,02,0.20
2011,07,06,23,03,0.20
2011,07,06,23,04,0.00
2011,07,06,23,05,0.00
2011,07,06,23,06,0.10
2011,07,06,23,07,0.20
2011,07,06,23,08,0.50
2011,07,06,23,09,2.40
2011,07,06,23,10,3.70
2011,07,06,23,11,4.00
2011,07,06,23,12,4.60
2011,07,06,23,13,4.60
2011,07,06,23,14,2.60
2011,07,06,23,15,3.20
2011,07,06,23,16,2.70
2011,07,06,23,17,2.10
2011,07,06,23,18,0.10
2011,07,06,23,19,1.40
2011,07,06,23,20,1.90
2011,07,06,23,21,2.80
2011,07,06,23,22,0.50
2011,07,06,23,23,0.00
2011,07,06,23,24,0.00
2011,07,06,23,25,0.00
2011,07,06,23,26,0.00
2011,07,06,23,27,0.00
2011,07,06,23,28,0.00
2011,07,06,23,29,0.10
2011,07,06,23,30,0.00
2011,07,06,23,31,0.00
2011,07,06,23,32,0.30
2011,07,06,23,33,1.30
2011,07,06,23,34,3.20
2011,07,06,23,35,3.50
2011,07,06,23,36,2.50
2011,07,06,23,37,0.30
2011,07,06,23,38,0.00
2011,07,06,23,39,0.00
2011,07,06,23,40,1.00
2011,07,06,23,41,0.10
2011,07,06,23,42,0.10
2011,07,06,23,43,0.00
2011,07,06,23,44,0.00
2011,07,06,23,45,0.00
2011,07,06,23,46,0.00
2011,07,06,23,47,0.00
2011,07,06,23,48,0.00
2011,07,06,23,49,0.00
2011,07,06,23,50,0.00
2011,07,06,23,51,0.50
2011,07,06,23,52,0.90
2011,07,06,23,53,0.10
2011,07,06,23,54,0.00
2011,07,06,23,55,0.00
2011,07,06,23,56,0.50
2011,07,06,23,57,0.30
2011,07,06,23,58,2.30
2011,07,06,23,59,1.80
